Location: *
(30.5708°N, 75.9796°E)
Time: 18:02:19
(UTC+00:00)

Daily predictions for brighter satellites

Satellite Brightness Start Highest point End
(mag) Time Altitude Azimuth Time Altitude Azimuth Time Altitude Azimuth
CZ-3B R/B 3.8 13:28:05 10° SW 13:32:29 90° S 13:53:37 10° NE
Delta 2 Rocket 4.0 13:34:03 10° WNW 13:38:09 56° SSW 13:42:50 10° SE
Cosmos 1953 3.9 13:37:28 10° SE 13:39:54 16° E 13:42:20 10° NE
Cosmos 1331 Rocket 4.0 13:37:10 10° N 13:42:17 65° ENE 13:47:22 10° SSE
Cosmos 1943 Rocket 3.8 13:40:28 10° NNE 13:43:47 16° ENE 13:47:04 10° E
Meteor 1-24 Rocket 3.6 13:38:36 10° N 13:43:55 61° E 13:49:08 10° SSE
Cosmos 1386 Rocket 4.4 13:38:40 10° N 13:44:40 72° E 13:50:39 10° SSE
Okean-O 4.3 13:40:40 10° SSW 13:44:47 39° W 13:48:57 10° NNW
Meteor 2-5 Rocket 3.8 13:42:36 10° N 13:48:11 84° W 13:53:42 10° S
Delta 128 4.0 13:45:36 10° WSW 13:50:11 62° S 13:55:13 11° E
STARLINK-1094 4.2 13:46:32 10° NNW 13:50:29 41° NE 13:54:13 11° ESE
Cosmos 1733 4.4 13:47:06 10° SSW 13:50:43 46° W 13:54:22 10° N
USA 234 3.6 13:44:32 10° NE 13:50:44 45° SE 13:56:56 10° SSW
Ariane Rocket 3.8 13:47:09 10° SE 13:51:31 30° ENE 13:55:53 10° N
Cosmos 1626 Rocket 4.5 13:47:57 10° NNE 13:51:42 28° E 13:55:24 10° SE
Cosmos 1943 3.9 13:48:13 10° SSE 13:53:08 32° ESE 13:58:05 10° NE
Cosmos 1892 Rocket 3.8 13:49:34 10° N 13:54:02 76° W 13:58:29 10° S
Cosmos 1674 4.0 13:50:35 10° NNW 13:54:08 44° W 13:57:40 10° SSW
STARLINK-1117 4.1 13:51:28 10° NNW 13:55:28 46° NE 13:59:00 13° ESE
STARLINK-1078 3.9 13:56:25 10° NNW 14:00:28 51° NE 14:03:48 14° ESE
FREGAT/IRIS 4.2 14:00:15 15° E 14:00:33 15° ENE 14:02:12 10° NE
Cosmos 1470 2.6 13:57:25 10° S 14:01:16 77° E 14:05:09 10° N
Cosmos 1602 Rocket 4.5 13:57:36 10° NNE 14:01:24 28° E 14:05:09 10° SE
CSL-04 Rocket 3.8 13:56:06 10° S 14:01:25 81° WSW 14:06:43 10° NNW
Cosmos 1626 2.1 13:58:24 10° N 14:02:03 57° E 14:05:41 10° SSE
Cosmos 1544 Rocket 4.3 13:59:11 10° SSW 14:03:29 58° W 14:07:51 10° N
STARLINK-1108 3.8 14:01:21 10° NW 14:05:26 58° NE 14:08:34 16° ESE
SJ-11-01 4.4 14:04:04 10° SSE 14:08:37 53° ENE 14:13:12 10° N
STARLINK-1071 3.6 14:06:18 10° NW 14:10:25 66° NE 14:13:22 18° SE
ATLAS 3B CENTAUR R/B 4.0 14:08:12 10° W 14:14:09 20° SW 14:17:43 10° S
SL-16 R/B 4.4 14:09:24 10° WSW 14:14:11 28° WNW 14:19:01 10° N
STARLINK-1110 3.6 14:11:16 10° NW 14:15:24 74° NE 14:18:09 20° SE
STARLINK-1124 3.5 14:16:14 10° NW 14:20:22 83° NE 14:22:56 22° SE
CZ-2C R/B 3.2 14:16:43 11° SE 14:21:18 45° ENE 14:25:55 10° N
Cosmos 1818 3.6 14:16:33 10° SSW 14:21:51 58° ESE 14:27:10 10° NE
Meteor 2-15 Rocket 4.4 14:18:43 10° S 14:24:47 86° E 14:30:53 10° N
HJ-1C 4.0 14:21:53 10° S 14:25:10 57° W 14:28:28 10° NNW
STARLINK-1122 3.6 14:21:11 10° NW 14:25:20 87° SW 14:27:42 25° SE
Aureole 2 Rocket 3.9 14:24:39 10° NNE 14:26:51 21° NE 14:26:51 21° NE
SJ-6B 3.5 14:26:35 28° ESE 14:27:55 36° ENE 14:31:42 10° N
MOS 1 Rocket 4.3 14:25:24 10° NE 14:30:11 32° E 14:32:54 21° SE
STARLINK-1126 3.6 14:26:11 10° NW 14:30:19 77° SW 14:32:30 27° SSE
ARGOS 3.2 14:28:28 15° SSE 14:32:53 56° ENE 14:38:09 10° N
Cosmos 1606 Rocket 4.1 14:32:05 30° SE 14:33:18 36° E 14:37:20 10° NNE
STARLINK-60 3.2 14:30:21 10° SSW 14:33:26 47° SE 14:33:26 47° SE
Meteor 1-21 Rocket 4.4 14:29:21 10° N 14:34:42 49° E 14:37:52 23° SE
STARLINK-1082 3.8 14:31:10 10° NW 14:35:17 68° SW 14:37:17 29° SSE
CZ-2C R/B 3.1 14:30:55 10° NE 14:35:34 33° E 14:37:02 28° SE
Cosmos 1603 3.9 14:30:44 10° SSW 14:36:22 74° WNW 14:41:59 10° NNE
SL-24 R/B 3.8 14:35:43 10° NNE 14:39:40 55° E 14:41:17 30° SSE
IRS-1A Rocket 4.2 14:34:35 10° SSE 14:40:12 89° E 14:45:59 10° NNW
Cosmos 2228 3.3 14:40:12 40° E 14:40:14 40° E 14:44:15 10° NNE
STARLINK-1100 4.0 14:36:10 10° NW 14:40:15 60° SW 14:42:04 30° SSE
Cosmos 1992 Rocket 4.4 14:36:54 10° N 14:41:49 41° ENE 14:42:57 36° ESE
Meteor 1-16 Rocket 4.0 14:37:44 10° S 14:42:57 65° E 14:48:20 10° NNE
H-2A R/B 2.0 14:39:00 10° SSE 14:44:21 89° WSW 14:49:34 10° NNW
STARLINK-1083 4.2 14:41:10 10° NW 14:45:12 53° SW 14:46:49 32° S
Cosmos 2184 Rocket 4.2 14:42:07 10° N 14:48:09 49° E 14:50:28 34° SE
STARLINK-1125 4.4 14:46:10 10° NW 14:50:08 47° SW 14:51:35 32° S
Cosmos 2084 Rocket 3.8 14:46:03 10° NNW 14:50:24 48° ENE 14:50:43 47° ENE
TSX-5 4.1 14:47:41 10° NNW 14:51:56 60° WSW 14:53:05 39° S
SEDSat Delta rocket 3.0 14:49:19 10° W 14:54:09 79° N 14:55:00 57° ENE
SL-4 R/B 3.3 14:51:34 10° WSW 14:54:39 32° NW 14:56:41 17° NNE
BREEZE-M DEB (TANK) 4.0 14:45:56 10° SW 14:55:16 56° SE 14:55:53 51° ESE
Meteor 2-10 4.2 14:50:07 10° SSW 14:55:24 77° W 15:00:55 10° N
Resurs 1-3 4.5 14:59:14 35° NE 14:59:14 35° NE 15:02:19 10° N
Cosmos 1726 2.7 14:56:03 10° SSW 14:59:43 56° W 15:03:24 10° N
BREEZE-M DEB (TANK) 2.4 14:57:22 10° NW 15:02:21 60° WSW 15:02:21 60° WSW
USA 186 3.4 15:06:07 29° SW 15:07:04 34° W 15:10:11 10° NNW
Nadezhda 1 Rocket 3.9 15:01:53 10° S 15:08:15 75° E 15:14:37 10° N
Cosmos 2154 Rocket 4.3 15:03:57 10° N 15:09:51 46° ENE 15:09:51 46° ENE
DMSP B5D2-2 4.0 15:06:38 10° N 15:11:51 82° WNW 15:17:05 10° SSW
Cosmos 292 Rocket 3.8 15:11:36 10° NNW 15:16:23 72° WSW 15:16:52 66° SSW
Resurs 01 Rocket 3.2 15:19:48 25° NNE 15:19:48 25° NNE 15:21:51 10° N
Cosmos 2369 Rocket 2.0 15:15:39 10° NNW 15:21:20 90° ENE 15:21:48 77° SSE
Cosmos 1943 Rocket 2.6 15:22:23 10° NNW 15:27:48 56° WSW 15:29:04 45° SSW
SL-24 R/B - RUBIN 2 4.1 15:25:24 10° SSW 15:30:34 81° WNW 15:36:32 10° NNE
USA 234 4.4 15:27:34 10° NNE 15:33:36 41° NW 15:39:37 10° WSW
ATLAS 2AS CENTAUR R/B 3.8 15:27:58 10° N 15:33:54 31° NE 15:33:54 31° NE
Cosmos 2263 4.3 15:30:43 10° NNW 15:35:33 67° N 15:35:33 67° N
Cosmos 2074 Rocket 4.4 15:31:06 10° NNW 15:37:14 59° W 15:39:40 36° SSW
SPOT 3 Rocket 4.4 15:45:32 45° WSW 15:45:47 46° W 15:50:47 10° NNW
ATLAS 5 CENTAUR R/B 3.8 15:57:12 10° WSW 16:04:24 53° SSE 16:40:39 10° E
USA 267 4.4 21:42:39 10° NNE 21:47:09 32° NNW 21:47:09 32° NNW
ADEOS II 4.4 21:51:25 10° N 21:52:23 15° N 21:52:23 15° N
Cosmos 2237 Rocket 3.9 21:51:24 10° N 21:56:23 31° ENE 22:01:20 10° SE
USA 238 DEB 3.8 22:02:17 67° NNE 22:02:17 67° NNE 22:08:04 10° NNE
USA 238 3.8 22:02:20 68° NNE 22:02:20 68° NNE 22:08:11 10° NNE
Cosmos 2297 Rocket 2.9 22:11:18 46° N 22:11:18 46° N 22:15:15 10° NNE
BREEZE-M DEB 4.3 22:12:13 58° NNW 22:12:13 58° NNW 22:23:58 10° NE
Cosmos 2219 4.3 22:14:15 35° NNW 22:14:15 35° NNW 22:17:44 10° N
IDEFIX/ARIANE 42P 3.0 22:12:36 10° NNE 22:16:38 55° NNE 22:16:38 55° NNE
Cosmos 1125 Rocket 3.8 22:19:47 64° ENE 22:19:47 64° ENE 22:24:40 10° NNE
Cosmos 1634 Rocket 3.8 22:20:50 10° N 22:26:36 74° NW 22:26:36 74° NW
NOSS 3-2 (A) 3.7 22:28:59 49° NNW 22:28:59 49° NNW 22:34:13 10° NNE
Geosat 4.0 22:27:31 10° NNE 22:32:05 73° N 22:32:05 73° N
Cosmos 2227 Rocket 2.7 22:36:21 45° NW 22:36:21 45° NW 22:40:54 10° N
BREEZE-M DEB (TANK) 4.2 22:40:44 21° N 22:40:44 21° N 22:41:52 10° NNE
STARLINK-1046 4.4 22:40:42 46° ESE 22:40:42 46° ESE 22:44:22 10° NE
ADEOS 4.1 22:37:03 10° NNE 22:42:10 56° E 22:45:09 24° S
Cosmos 2142 Rocket 4.3 22:36:39 10° N 22:42:59 78° W 22:46:39 27° S
NOSS 0 Rocket 3.8 22:38:29 10° NNW 22:44:33 65° WSW 22:50:37 10° S
CENTAUR R/B 2.2 22:43:35 62° SW 22:44:37 85° WNW 22:51:05 10° NNE
STARLINK-1039 4.1 22:45:30 53° ESE 22:45:30 53° ESE 22:49:23 10° NE
CBERS 1 LM4 rocket 4.3 22:41:23 10° NNE 22:46:20 85° WNW 22:47:04 65° SSW
STARLINK-1045 3.9 22:50:16 61° SE 22:50:18 61° SE 22:54:23 10° NE
COSMOS 2441 4.2 22:45:51 10° N 22:50:39 79° WNW 22:51:11 68° SW
STARLINK-1050 3.6 22:55:07 69° SSE 22:55:19 71° SE 22:59:26 10° NE
NOSS 3-2 (C) 3.4 22:56:14 48° W 22:57:08 52° WNW 23:03:08 10° NNE
CCE 1 Rocket 4.2 22:56:55 49° SSW 22:57:22 50° SSW 23:04:05 10° ESE
Cosmos 1980 3.6 22:52:34 10° NNW 22:58:10 66° WSW 23:03:43 10° S
COBE Rocket 4.0 23:00:13 51° W 23:00:13 51° W 23:04:28 10° NNW
STARLINK-1055 3.5 22:59:53 71° S 23:00:16 80° SE 23:04:25 10° NE
Gblst 52 Del rocket 4.3 22:54:32 10° NW 23:00:36 75° NE 23:06:07 10° SE
Cosmos 2221 Rocket 3.4 23:00:32 63° WSW 23:00:58 69° W 23:05:24 10° N
Meteor 1-19 Rocket 4.5 23:00:49 44° W 23:01:20 46° W 23:06:42 10° N
STARLINK-1022 3.5 23:04:41 65° SW 23:05:15 90° SE 23:09:24 10° NE
GPS 2-04 Rocket1 3.2 23:06:46 41° S 23:06:46 41° S 23:09:45 10° SE
Cosmos 389 Rocket 3.5 23:08:17 34° NNW 23:08:17 34° NNW 23:10:39 10° N
Cosmos 1544 2.9 23:05:11 10° N 23:08:49 74° W 23:09:10 66° SW
Cosmos 2082 4.1 23:08:30 38° W 23:09:42 43° WNW 23:15:08 10° N
STARLINK-1042 3.5 23:09:27 58° WSW 23:10:13 81° NW 23:14:22 10° NE
Nadezhda 4 Rocket 3.9 23:05:40 10° S 23:11:56 78° W 23:18:18 10° N
H-2A R/B 4.3 23:09:06 10° NE 23:12:37 29° E 23:16:01 10° SSE
ATLAS 5 CENTAUR R/B 2.4 23:06:48 17° SSW 23:13:24 85° ESE 23:16:29 10° NE
SL-16 R/B 3.1 23:08:36 10° N 23:14:07 51° ENE 23:19:35 10° SE
MSX 4.2 23:09:11 10° N 23:14:35 43° WNW 23:16:41 31° WSW
STARLINK-1056 3.5 23:14:13 50° WSW 23:15:10 72° NW 23:19:19 10° NE
Delta 142 4.2 23:15:01 33° SW 23:16:57 50° S 23:21:17 10° E
Sich 1 Rocket 3.7 23:13:26 10° NNW 23:17:39 48° W 23:19:41 27° SSW
SL-4 R/B 3.6 23:20:12 21° SSW 23:20:12 21° SSW 23:22:14 10° S
Cosmos 2279 Rocket 4.2 23:13:51 10° NNW 23:19:44 45° W 23:25:37 10° SSW
Cosmos 1867 4.3 23:14:30 10° S 23:19:44 51° ESE 23:25:00 10° NE
STARLINK-1054 3.6 23:19:01 43° WSW 23:20:10 63° NW 23:24:17 10° NE
Cosmos 1484 Rocket 4.1 23:19:37 10° NNE 23:23:12 39° E 23:26:42 10° S
Okean 2 Rocket 3.0 23:18:46 10° N 23:23:16 77° W 23:27:45 10° S
Cosmos 2151 Rocket 3.9 23:19:22 10° N 23:23:44 68° E 23:28:05 10° SSE
STARLINK-1062 3.8 23:23:47 37° WSW 23:25:08 56° NW 23:29:13 10° NE
PAYLOAD A 4.4 23:21:56 10° N 23:27:05 48° WNW 23:30:38 19° SW
Cosmos 1975 3.8 23:24:24 10° NNW 23:27:12 27° WNW 23:27:12 27° WNW
STARLINK-1053 3.9 23:28:34 32° WSW 23:30:08 50° NW 23:34:10 10° NNE
ASTRO E2 2.8 23:29:16 33° W 23:30:49 58° SSW 23:34:42 10° ESE
STARLINK-52 4.4 23:29:11 10° NNW 23:32:14 38° NE 23:35:15 10° ESE
Cosmos 1300 Rocket 3.4 23:28:18 10° N 23:32:37 74° W 23:36:54 10° S
Spot 2 4.4 23:28:52 10° N 23:34:02 80° WNW 23:39:06 10° SSW
STARLINK-1061 4.1 23:33:20 28° W 23:35:06 45° NW 23:39:05 10° NNE
ATLAS 3B R/B 2.7 23:32:20 16° SW 23:37:51 64° WNW 23:44:27 10° NNE
CZ-4B R/B 3.3 23:40:02 16° WNW 23:40:02 16° WNW 23:41:07 10° NW
STARLINK-1067 4.2 23:38:08 24° W 23:40:06 40° NW 23:44:01 10° NNE
Cosmos 2237 Rocket 3.0 23:35:31 10° NW 23:40:15 28° WSW 23:44:59 10° SSW
Cosmos 1378 Rocket 3.4 23:38:05 10° S 23:42:22 81° W 23:46:44 10° N
PSLV R/B 4.0 23:38:40 10° SSE 23:42:52 86° ENE 23:47:05 10° N
STARLINK-1058 4.4 23:42:54 21° W 23:45:05 36° NW 23:48:55 10° NNE
Cosmos 1437 Rocket 4.1 23:41:38 10° SSE 23:45:31 44° E 23:49:26 10° NNE
Cosmos 1269 Rocket 4.3 23:40:51 10° NNW 23:46:10 73° ENE 23:51:26 10° SSE
Cosmos 494 Rocket 3.9 23:44:23 10° NNW 23:49:37 68° WSW 23:54:48 10° S
SWIFT 4.1 23:47:53 12° SW 23:50:31 20° S 23:53:39 10° SE
SeaSat 1 2.4 23:46:04 10° SSE 23:50:58 74° WSW 23:55:54 10° NNW
CZ-2C R/B 3.2 23:47:42 10° NNW 23:51:33 28° WNW 23:55:06 12° SW
Cosmos 2263 Rocket 2.3 23:46:12 10° SSW 23:51:50 82° ESE 23:57:32 10° NNE
CZ-4B R/B 4.1 23:52:20 10° N 23:56:04 44° WNW 23:59:38 10° SSW
